カタログに戻る

DRO-B

Lost通信LPO
NORAD 60058·PAYLOAD·🇨🇳 China

打ち上げ Mar 13, 2024 から Xichang Satellite Launch Center

Loading…

TLE

最新Source: Space-Track

元期: Aug 10, 2026, 14:45 UTC

1 60058U 24048D   26222.61524306 -.00009221  00000-0  00000-0 0  9993
2 60058  29.8306 354.7217 4752241  86.0189  25.0148  0.02134266   155

AllMySatでDRO-Bをリアルタイム追跡

Download on the App Store